Ypsilanti, MI

2:50 PM EDT on May 23, 2018 (GMT -0400)
Willow Run

Weather History for KYIP - December, 2012

Change the Weather History Date:

Wednesday, December 5, 2012

  Actual Average Record
Temperature  
Mean Temperature 34 °F -  
Max Temperature 41 °F 38 °F 66 °F (2001)
Min Temperature 27 °F 26 °F 9 °F (2007)
Degree Days  
Heating Degree Days 31    
Moisture  
Dew Point 22 °F    
Average Humidity 61    
Maximum Humidity 75    
Minimum Humidity 45    
Precipitation  
Precipitation 0.00 in - - ()
Sea Level Pressure  
Sea Level Pressure 30.34 in    
Wind  
Wind Speed 9 mph (NNW)    
Max Wind Speed 17 mph    
Max Gust Speed 23 mph    
Visibility 10 miles    
Events      
Averages and records for this station are not official NWS values.
T = Trace of Precipitation, MM = Missing Value Source: NWS Daily Summary

Daily Weather History Graph

Daily Weather History Graph

Search for Another Location

Airport or City:

Astronomy

Dec. 05, 2012 Rise Set
Actual Time 7:47 AM EST 5:01 PM EST
Civil Twilight 7:16 AM EST 5:33 PM EST
Nautical Twilight 6:41 AM EST 6:08 PM EST
Astronomical Twilight 6:07 AM EST 6:42 PM EST
Moon 11:56 PM EST (12/5) 12:05 PM EST (12/5)
Length of Visible Light 10h 17m
Length of Day
9h 14m
Waning Gibbous, 60% of the Moon is Illuminated
Dec 5
Waning Gibbous
Dec 6
Last Quarter
Dec 13
New
Dec 20
First Quarter
Dec 28
Full

Hourly Weather History & Observations

Time (EST) Temp. Windchill Dew Point Humidity Pressure Visibility Wind Dir Wind Speed Gust Speed Precip Events Conditions
12:53 AM 41.0 °F 34.7 °F 30.0 °F 65% 30.15 in 10.0 mi NW 10.4 mph - N/A   Clear
1:53 AM 39.9 °F 32.9 °F 28.0 °F 63% 30.18 in 10.0 mi NW 11.5 mph - N/A   Clear
2:53 AM 37.9 °F 30.5 °F 27.0 °F 65% 30.20 in 10.0 mi NW 11.5 mph - N/A   Clear
3:53 AM 36.0 °F 29.0 °F 26.1 °F 67% 30.24 in 10.0 mi NW 9.2 mph - N/A   Clear
4:53 AM 35.1 °F 26.4 °F 24.1 °F 64% 30.26 in 10.0 mi NW 12.7 mph - N/A   Clear
5:53 AM 34.0 °F 23.4 °F 21.9 °F 61% 30.29 in 10.0 mi NNW 17.3 mph 23.0 mph N/A   Clear
6:53 AM 30.0 °F 22.4 °F 19.9 °F 66% 30.32 in 10.0 mi NNW 8.1 mph - N/A   Clear
7:53 AM 30.0 °F 20.0 °F 18.0 °F 61% 30.36 in 10.0 mi NNW 12.7 mph - N/A   Clear
9:53 AM 34.0 °F 26.0 °F 19.0 °F 54% 30.39 in - NW 10.4 mph - N/A   Clear
10:53 AM 37.0 °F 29.3 °F 19.9 °F 50% 30.41 in 10.0 mi NNW 11.5 mph - N/A   Clear
11:53 AM 37.9 °F 30.5 °F 19.9 °F 48% 30.39 in 10.0 mi NNW 11.5 mph - N/A   Clear
12:53 PM 39.9 °F 32.1 °F 21.0 °F 47% 30.37 in - North 13.8 mph - N/A   Clear
1:53 PM 41.0 °F 34.3 °F 21.0 °F 45% 30.37 in 10.0 mi NNW 11.5 mph - N/A   Clear
2:53 PM 39.9 °F 36.7 °F 21.0 °F 47% 30.38 in - ENE 4.6 mph - N/A   Partly Cloudy
3:53 PM 37.9 °F 33.5 °F 21.0 °F 51% 30.39 in 10.0 mi NE 5.8 mph - N/A   Clear
4:53 PM 35.1 °F 30.1 °F 21.0 °F 57% 30.40 in 10.0 mi North 5.8 mph - N/A   Clear
5:53 PM 33.1 °F - 19.9 °F 59% 30.40 in 10.0 mi Calm Calm - N/A   Clear
6:53 PM 32.0 °F - 19.0 °F 59% 30.40 in 10.0 mi Calm Calm - N/A   Clear
7:53 PM 30.0 °F - 19.9 °F 66% 30.41 in 10.0 mi Calm Calm - N/A   Clear
8:53 PM 27.0 °F 20.5 °F 19.0 °F 72% 30.39 in 10.0 mi ESE 5.8 mph - N/A   Clear
9:53 PM 28.0 °F 21.7 °F 19.9 °F 72% 30.40 in 10.0 mi ESE 5.8 mph - N/A   Clear
10:53 PM 28.0 °F - 19.9 °F 72% 30.39 in 10.0 mi Calm Calm - N/A   Partly Cloudy
11:23 PM 28.4 °F - 19.4 °F 69% 30.37 in 10.0 mi Calm Calm - N/A   Mostly Cloudy
11:53 PM 28.9 °F - 21.9 °F 75% 30.38 in 10.0 mi Calm Calm - N/A   Overcast